User: anonymous   Login
Location: DaVinci Observatory
(43.1080°N, 78.6453°W)
Time: 12:00:41
(UTC-04:00)
Language:

TIGRISAT - Orbit

View from above orbital plane
View from above orbital plane
View from above satellite
View from above satellite

Ground track
Ground track

The orbit data is extracted from the following two-line orbital elements,

1 40043U 14033AK  18263.60507729 +.00000093 +00000-0 +21341-4 0  9995
2 40043 097.7937 137.3670 0058646 251.0379 108.4468 14.74174535228361
Epoch (UTC): 20 September 2018 14:31:18
Eccentricity: 0.0058646
inclination: 97.7937°
perigee height: 606 km
apogee height: 689 km
right ascension of ascending node: 137.3670°
argument of perigee: 251.0379°
revolutions per day: 14.74174535
mean anomaly at epoch: 108.4468°
orbit number at epoch: 22836

The dashed part of the orbit path shows where the satellite is in the earth's shadow,  

DLR